This is the latest recevied weather packets stored in our database for station/object VE8SKI. If no packets are shown the sender has not sent any weather packets the latest 10 day(s).
| Time | Temp. | Humidity | Pressure | Rain* | Wind** | Luminosity | Snow |
|---|---|---|---|---|---|---|---|
| 1777743406 | 5.56° C | 61% | 1011.6 hPa | 0 mm | 1.79 m/s, 190° | - | - |
| 1777743107 | 5.56° C | 61% | 1011.7 hPa | 0 mm | 1.79 m/s, 201° | - | - |
| 1777742807 | 5.56° C | 62% | 1011.8 hPa | 0 mm | 1.34 m/s, 221° | - | - |
| 1777742505 | 5.56° C | 61% | 1012 hPa | 0 mm | 1.79 m/s, 219° | - | - |
| 1777742205 | 5° C | 61% | 1012 hPa | 0 mm | 1.34 m/s, 125° | - | - |
| 1777741906 | 5° C | 61% | 1012.2 hPa | 0 mm | 0.45 m/s, 82° | - | - |
| 1777741606 | 5° C | 62% | 1012.1 hPa | 0 mm | 1.79 m/s, 155° | - | - |
| 1777741307 | 5° C | 61% | 1012.3 hPa | 0 mm | 1.79 m/s, 124° | - | - |
| 1777741007 | 5° C | 61% | 1012.4 hPa | 0 mm | 2.24 m/s, 132° | - | - |
| 1777740705 | 5° C | 62% | 1012.5 hPa | 0 mm | 1.79 m/s, 93° | - | - |
| 1777740405 | 5° C | 62% | 1012.6 hPa | 0 mm | 1.79 m/s, 96° | - | - |
| 1777740106 | 4.44° C | 63% | 1012.7 hPa | 0 mm | 1.79 m/s, 89° | - | - |
| 1777739806 | 4.44° C | 63% | 1012.8 hPa | 0 mm | 2.24 m/s, 121° | - | - |
| 1777739506 | 5° C | 63% | 1013 hPa | 0 mm | 1.79 m/s, 79° | - | - |
| 1777739207 | 4.44° C | 62% | 1013.1 hPa | 0 mm | 2.24 m/s, 138° | - | - |
| 1777738905 | 5° C | 64% | 1013.3 hPa | 0 mm | 0.89 m/s, 169° | - | - |
| 1777738605 | 4.44° C | 64% | 1013.5 hPa | 0 mm | 1.34 m/s, 103° | - | - |
| 1777738306 | 4.44° C | 62% | 1013.6 hPa | 0 mm | 2.24 m/s, 93° | - | - |
| 1777738006 | 4.44° C | 63% | 1013.6 hPa | 0 mm | 1.79 m/s, 100° | - | - |
| 1777737707 | 4.44° C | 63% | 1013.8 hPa | 0 mm | 1.34 m/s, 93° | - | - |
| 1777737407 | 4.44° C | 63% | 1013.9 hPa | 0 mm | 2.24 m/s, 122° | - | - |
| 1777737105 | 4.44° C | 64% | 1014 hPa | 0 mm | 1.79 m/s, 155° | - | - |
| 1777736805 | 4.44° C | 63% | 1014.2 hPa | 0 mm | 1.34 m/s, 90° | - | - |
| 1777736505 | 4.44° C | 64% | 1014.3 hPa | 0 mm | 1.34 m/s, 90° | - | - |
| 1777736206 | 3.89° C | 64% | 1014.5 hPa | 0 mm | 1.79 m/s, 93° | - | - |
* Rain latest hour (hover to see other rain measurements)
** Current wind speed in m/s (hover to see current wind gust speed)